EW9525 Weather Reports


Display with metric or nautical units.
time (UTC)temp
F
wind
direction
speed
MPH
gust
MPH
rain 1hr
in
rain 24hr
in
rain mn
in
humidity
%
barometer
mb
20260510020011 62 350 17.0 25.0 0.00 0.00 0.00 49 1012.0
20260510014511 63 330 15.0 22.0 0.00 0.00 0.00 46 1011.8
20260510013008 65 325 18.0 24.0 0.00 0.00 0.00 43 1011.0
20260510011508 67 343 15.0 22.0 0.00 0.00 0.00 38 1010.6
20260510010005 68 12 16.0 25.0 0.00 0.00 0.00 36 1010.2
20260510004600 70 10 16.0 28.0 0.00 0.00 0.00 34 1009.7
20260510003101 71 13 20.0 28.0 0.00 0.00 0.00 31 1009.2
20260510001559 73 20 18.0 25.0 0.00 0.00 0.00 29 1009.2
20260510000058 73 29 18.0 25.0 0.00 0.00 0.00 29 1009.2
20260509234557 72 34 18.0 23.0 0.00 0.00 0.00 30 1009.1
20260509233056 73 5 18.0 26.0 0.00 0.00 0.00 29 1008.9
20260509231558 74 20 15.0 22.0 0.00 0.00 0.00 28 1008.8
20260509230059 76 359 15.0 25.0 0.00 0.00 0.00 27 1008.5
20260509224559 76 6 15.0 25.0 0.00 0.00 0.00 28 1008.3
20260509223054 77 352 16.0 24.0 0.00 0.00 0.00 27 1008.0
20260509221552 78 8 20.0 28.0 0.00 0.00 0.00 27 1007.9
20260509220055 79 335 16.0 23.0 0.00 0.00 0.00 28 1007.7
20260509214558 80 20 16.0 24.0 0.00 0.00 0.00 28 1007.6
20260509213113 79 317 8.0 17.0 0.00 0.00 0.00 28 1007.6
20260509211553 79 327 9.0 17.0 0.00 0.00 0.00 30 1007.6
20260509204548 79 322 13.0 19.0 0.00 0.00 0.00 29 1007.7
20260509203048 79 329 11.0 18.0 0.00 0.00 0.00 29 1007.7
20260509201547 78 326 14.0 22.0 0.00 0.00 0.00 30 1007.6
20260509200047 79 323 16.0 23.0 0.00 0.00 0.00 30 1007.3
20260509194547 78 14 15.0 22.0 0.00 0.00 0.00 28 1007.5
20260509193045 79 8 16.0 22.0 0.00 0.00 0.00 29 1007.3
20260509191544 78 41 12.0 17.0 0.00 0.00 0.00 30 1007.3
20260509190043 77 43 9.0 19.0 0.00 0.00 0.00 32 1007.3
20260509184551 77 349 9.0 19.0 0.00 0.00 0.00 33 1007.2
20260509183038 76 8 12.0 16.0 0.00 0.00 0.00 33 1007.3
20260509181549 75 338 10.0 17.0 0.00 0.00 0.00 34 1007.5
20260509180032 73 6 9.0 15.0 0.00 0.00 0.00 35 1007.6
20260509174528 71 6 8.0 14.0 0.00 0.00 0.00 37 1007.8
20260509173026 70 21 8.0 13.0 0.00 0.00 0.00 38 1007.8
20260509171524 70 357 8.0 12.0 0.00 0.00 0.00 39 1008.1
20260509170022 68 20 7.0 14.0 0.00 0.00 0.00 42 1008.2
20260509164531 67 348 6.0 10.0 0.00 0.00 0.00 45 1008.2
20260509163017 66 8 4.0 9.0 0.00 0.00 0.00 45 1008.2
20260509161512 65 356 4.0 8.0 0.00 0.00 0.00 47 1008.2
20260509160010 63 349 3.0 7.0 0.00 0.00 0.00 53 1008.4
20260509154508 62 338 6.0 8.0 0.00 0.00 0.00 55 1008.6
20260509153007 62 343 1.0 2.0 0.00 0.00 0.00 53 1008.6
20260509151507 61 307 0.0 2.0 0.00 0.00 0.00 58 1008.6
20260509150006 62 156 0.0 1.0 0.00 0.00 0.00 50 1008.6
20260509144505 62 174 1.0 5.0 0.00 0.00 0.00 51 1008.7
20260509143005 62 195 2.0 5.0 0.00 0.00 0.00 51 1008.8
20260509141502 61 150 3.0 5.0 0.00 0.00 0.00 56 1009.0
20260509140105 60 176 3.0 6.0 0.00 0.00 0.00 58 1009.0
20260509134556 59 153 4.0 7.0 0.00 0.00 0.00 59 1009.0
20260509133052 57 169 4.0 10.0 0.00 0.00 0.00 62 1008.9
20260509131550 57 209 5.0 9.0 0.00 0.00 0.00 60 1008.9
20260509130047 55 218 4.0 9.0 0.00 0.00 0.00 63 1008.8
20260509124544 54 217 3.0 10.0 0.00 0.00 0.00 63 1008.8
20260509123040 53 259 2.0 7.0 0.00 0.00 0.00 69 1008.7
20260509121540 52 176 4.0 5.0 0.00 0.00 0.00 71 1008.4
20260509120038 50 146 0.0 3.0 0.00 0.00 0.00 74 1008.4
20260509114535 50 193 2.0 5.0 0.00 0.00 0.00 73 1008.4
20260509113034 50 179 6.0 9.0 0.00 0.00 0.00 72 1007.9
20260509111533 49 172 3.0 5.0 0.00 0.00 0.00 73 1008.3
20260509110039 50 189 2.0 8.0 0.00 0.00 0.00 69 1008.2
20260509104534 48 242 2.0 5.0 0.00 0.00 0.00 70 1008.2
20260509103033 46 158 1.0 3.0 0.00 0.00 0.00 74 1008.0
20260509101539 45 191 1.0 2.0 0.00 0.00 0.00 75 1008.2
20260509100026 45 161 1.0 3.0 0.00 0.00 0.00 71 1008.1
20260509094528 49 198 1.0 4.0 0.00 0.00 0.00 63 1008.1
20260509093025 49 216 1.0 3.0 0.00 0.00 0.00 61 1008.2
20260509091529 49 227 3.0 6.0 0.00 0.00 0.00 62 1008.3
20260509090023 49 209 2.0 4.0 0.00 0.00 0.00 63 1008.2
20260509084528 47 259 1.0 3.0 0.00 0.00 0.00 65 1008.4
20260509083024 49 219 1.0 4.0 0.00 0.00 0.00 63 1008.1
20260509081520 48 211 1.0 2.0 0.00 0.00 0.00 63 1008.1
20260509080017 47 221 1.0 3.0 0.00 0.00 0.00 65 1008.3
20260509074518 45 200 1.0 3.0 0.00 0.00 0.00 66 1008.3
20260509073025 45 202 0.0 0.0 0.00 0.00 0.00 67 1008.5
20260509071512 47 222 0.0 3.0 0.00 0.00 0.00 65 1008.6
20260509070010 46 117 0.0 2.0 0.00 0.00 0.00 65 1008.8
20260509064508 48 186 4.0 6.0 0.00 0.00 0.00 61 1008.7
20260509063013 47 199 3.0 5.0 0.00 0.00 0.00 62 1008.6
20260509061504 49 198 3.0 5.0 0.00 0.00 0.00 58 1008.8
20260509060002 51 215 4.0 6.0 0.00 0.00 0.00 54 1008.7
20260509054614 50 192 3.0 5.0 0.00 0.00 0.00 56 1008.7
20260509053104 50 200 4.0 6.0 0.00 0.00 0.00 56 1008.8
20260509051557 51 191 3.0 6.0 0.00 0.00 0.00 56 1009.0
20260509050057 50 193 3.0 5.0 0.00 0.00 0.00 56 1009.0
20260509044554 52 200 4.0 6.0 0.00 0.00 0.00 51 1009.1
20260509043054 51 198 3.0 5.0 0.00 0.00 0.00 51 1009.1
20260509041555 52 177 4.0 5.0 0.00 0.00 0.00 48 1009.1
20260509040121 52 195 3.0 5.0 0.00 0.00 0.00 48 1009.1
20260509034557 53 195 4.0 5.0 0.00 0.00 0.00 46 1008.9
20260509033053 55 191 3.0 4.0 0.00 0.00 0.00 43 1008.9
20260509031553 57 177 3.0 4.0 0.00 0.00 0.00 39 1008.7
20260509030051 68 198 0.0 0.0 0.00 0.00 0.00 27 1008.7
20260509024550 67 243 0.0 2.0 0.00 0.00 0.00 26 1008.5
20260509023049 67 241 0.0 1.0 0.00 0.00 0.00 27 1008.4
20260509021549 67 252 0.0 2.0 0.00 0.00 0.00 27 1008.3